This demonstration page uses our WeatherBlox Daily Observations layout. Learn more.

Left ArrowRight Arrow

Hourly Observations for June 6, 2017

Temp ( °F °C ) Dew Point ( °F °C ) Humidity (%) Winds ( mph kmh ) Pressure ( in mb ) Visibility ( mi km ) Precip ( " mm )
12:51 am 00:51 Clear 84 28.9 35 1.7 17 17 NW 12 19 29.69 1005 10 16 N/A
1:51 am 01:51 Clear 79 26.1 34 1.1 20 20 NNW 8 13 29.70 1006 10 16 N/A
2:51 am 02:51 Clear 76 24.4 34 1.1 22 22 NW 6 9 29.71 1006 10 16 N/A
3:51 am 03:51 Clear 74 23.3 33 0.6 22 22 N 5 7 29.72 1007 10 16 N/A
4:51 am 04:51 Clear 74 23.3 34 1.1 23 23 N N/A 29.73 1007 10 16 N/A
5:51 am 05:51 Sunny 72 22.2 34 1.1 25 25 ESE 6 9 29.77 1008 10 16 N/A
6:51 am 06:51 Sunny 78 25.6 36 2.2 22 22 ESE 3 6 29.79 1009 10 16 N/A
7:51 am 07:51 Sunny 84 28.9 37 2.8 19 19 VRB 3 6 29.80 1009 10 16 N/A
8:44 am 08:44 Sunny 91 33 39 4 16 16 ESE 13 20 29.71 1006 10 16 N/A
8:51 am 08:51 Sunny 92 33.3 40 4.4 16 16 SE 10 17 29.80 1009 10 16 N/A
9:51 am 09:51 Sunny 94 34.4 43 6.1 17 17 SSE 10 17 29.79 1009 10 16 N/A
10:51 am 10:51 Sunny 96 35.6 44 6.7 17 17 VRB 3 6 29.78 1008 10 16 N/A
11:51 am 11:51 Sunny 98 36.7 45 7.2 16 16 WSW 6 9 29.75 1008 10 16 N/A
12:51 pm 12:51 Sunny 102 38.9 42 5.6 13 13 N N/A 29.72 1006 10 16 N/A
1:51 pm 13:51 Sunny 103 39.4 39 3.9 11 11 VRB 3 6 29.69 1006 10 16 N/A
2:51 pm 14:51 Mostly Sunny 103 39.4 38 3.3 11 11 N N/A 29.67 1005 10 16 N/A
3:51 pm 15:51 Mostly Sunny 106 41.1 38 3.3 10 10 N 12 19 29.63 1004 10 16 N/A
4:51 pm 16:51 Mostly Cloudy 104 40 36 2.2 9 9 WNW 12 19 29.63 1003 10 16 N/A
5:51 pm 17:51 Mostly Sunny 103 39.4 36 2.2 10 10 WNW 10 17 29.63 1003 10 16 N/A
6:51 pm 18:51 Partly Cloudy 98 36.7 35 1.7 11 11 WNW 18 30 29.66 1004 10 16 N/A
7:51 pm 19:51 Mostly Cloudy 95 35 36 2.2 13 13 WNW 15 24 29.67 1005 10 16 N/A
8:51 pm 20:51 Clear 92 33.3 42 5.6 18 18 SSE 6 9 29.72 1006 10 16 N/A
9:51 pm 21:51 Mostly Clear 89 31.7 43 6.1 20 20 SSW 9 15 29.75 1007 10 16 N/A
10:51 pm 22:51 Clear 88 31.1 43 6.1 21 21 SSW 7 11 29.75 1008 10 16 N/A
11:51 pm 23:51 Clear 85 29.4 43 6.1 23 23 S 9 15 29.76 1008 10 16 N/A

Powered by AerisWeather